Location: Bord�res
(43.2000°N, 0.2167°W)
Time: 12:56:04
(UTC+00:00)

BREEZE-M DEB (TANK) - Pass Details

Date: 03 March 2021
Orbit: 334 x 11905 km, 49.7° (Epoch: 14 April)

Event Time Altitude Azimuth Distance (km) Brightness Sun altitude
Rises 18:57:39 0° 214° (SSW) 2,392 7.1 -12.6°
Reaches altitude 10° 18:59:58 10° 197° (SSW) 1,299 5.5 -13.1°
Maximum altitude 19:01:59 23° 139° (SE) 777 3.8 -13.4°
Enters shadow 19:02:05 23° 134° (SE) 782 3.8 -13.4°
